Satellite-Ground Cal/Val Region Overpasses Predictions

Prediction of Satellite NPP Overpassing Cal/Val Region: PacNW

Region Location: (Latitude: 10.00, Longitude: 139.50) to (Latitude: 22.70, Longitude: 165.60).

Table of predicted overpasses for the next 14.0 days since TLE Epoch: 10/16/2017
Interval Starting Time Starting Location Ending Time Ending Location
1 10/17/2017 03:43:20 ( 10.03, 143.97) 10/17/2017 03:46:55 ( 22.65, 140.97)
2 10/17/2017 14:34:51 ( 18.71, 165.59) 10/17/2017 14:37:19 ( 10.01, 163.56)
3 10/17/2017 16:15:13 ( 22.69, 141.19) 10/17/2017 16:17:12 ( 15.71, 139.50)
4 10/18/2017 03:24:19 ( 10.05, 148.72) 10/18/2017 03:27:54 ( 22.67, 145.72)
5 10/18/2017 15:56:12 ( 22.67, 145.94) 10/18/2017 15:59:47 ( 10.04, 142.95)
6 10/19/2017 03:05:16 ( 10.01, 153.48) 10/19/2017 03:08:52 ( 22.69, 150.47)
7 10/19/2017 15:37:10 ( 22.64, 150.69) 10/19/2017 15:40:45 ( 10.02, 147.70)
8 10/20/2017 02:46:15 ( 10.04, 158.23) 10/20/2017 02:49:50 ( 22.66, 155.23)
9 10/20/2017 15:18:08 ( 22.68, 155.46) 10/20/2017 15:21:43 ( 10.05, 152.46)
10 10/21/2017 02:27:12 ( 10.00, 163.00) 10/21/2017 02:30:48 ( 22.68, 159.98)
11 10/21/2017 14:59:06 ( 22.65, 160.21) 10/21/2017 15:02:41 ( 10.03, 157.21)
12 10/22/2017 02:10:47 ( 19.19, 165.60) 10/22/2017 02:11:46 ( 22.65, 164.75)
13 10/22/2017 03:49:41 ( 10.03, 142.37) 10/22/2017 03:53:07 ( 22.13, 139.50)
14 10/22/2017 14:40:04 ( 22.68, 164.97) 10/22/2017 14:43:40 ( 10.00, 161.96)
15 10/22/2017 16:21:34 ( 22.68, 139.59) 10/22/2017 16:21:40 ( 22.33, 139.51)
16 10/23/2017 03:30:38 ( 10.00, 147.13) 10/23/2017 03:34:14 ( 22.68, 144.12)
17 10/23/2017 16:02:32 ( 22.65, 144.34) 10/23/2017 16:06:07 ( 10.03, 141.35)
18 10/24/2017 03:11:37 ( 10.03, 151.88) 10/24/2017 03:15:12 ( 22.65, 148.88)
19 10/24/2017 15:43:30 ( 22.68, 149.11) 10/24/2017 15:47:06 ( 10.00, 146.10)
20 10/25/2017 02:52:36 ( 10.05, 156.63) 10/25/2017 02:56:11 ( 22.68, 153.63)
21 10/25/2017 15:24:28 ( 22.66, 153.86) 10/25/2017 15:28:03 ( 10.04, 150.86)
22 10/26/2017 02:33:33 ( 10.02, 161.40) 10/26/2017 02:37:08 ( 22.64, 158.40)
23 10/26/2017 15:05:26 ( 22.69, 158.62) 10/26/2017 15:09:02 ( 10.01, 155.61)
24 10/27/2017 02:15:13 ( 12.46, 165.59) 10/27/2017 02:18:07 ( 22.67, 163.15)
25 10/27/2017 03:56:02 ( 10.06, 140.77) 10/27/2017 03:57:35 ( 15.52, 139.50)
26 10/27/2017 14:46:24 ( 22.66, 163.37) 10/27/2017 14:49:59 ( 10.04, 160.37)
27 10/28/2017 03:36:59 ( 10.02, 145.53) 10/28/2017 03:40:34 ( 22.65, 142.53)
28 10/28/2017 14:30:23 ( 12.07, 165.59) 10/28/2017 14:30:58 ( 10.01, 165.12)
29 10/28/2017 16:08:52 ( 22.69, 142.76) 10/28/2017 16:12:28 ( 10.01, 139.75)
30 10/29/2017 03:17:58 ( 10.05, 150.28) 10/29/2017 03:21:33 ( 22.68, 147.28)
31 10/29/2017 15:49:50 ( 22.66, 147.51) 10/29/2017 15:53:25 ( 10.04, 144.51)
32 10/30/2017 02:58:55 ( 10.02, 155.04) 10/30/2017 03:02:30 ( 22.65, 152.05)


NCC Satellite Cal/Val Overpasses Prediction Service
